GFSCGP_850_dewp_120.txt.gz
Dewpoint
-4 -2 -3 -2 -3 -7 -3 -3 -2 -1 -2 -0 -1 -1 -2 -3 -3 -3 -6 -5 0 3 3 3 2 2 1 0 0 0 2 2 2 2 2 2 3 5 5 3 4 3 5 5
-2 -1 -3 -2 -3 -2 -3 -2 1 1 -0 1 1 1 -1 -1 -1 -2 -3 -4 -2 3 3 3 2 2 1 1 1 1 2 2 2 2 3 3 4 5 5 5 5 5 6 5
-2 -2 -2 -2 -1 -0 1 -0 1 -1 0 0 -0 -4 -4 1 1 1 0 -0 -1 2 3 3 2 2 1 1 1 1 2 2 2 2 3 3 4 4 4 5 5 5 5 5
-1 -2 -1 -0 1 -1 -0 1 2 2 -1 -4 -1 -2 -6 -1 1 2 2 1 2 3 3 2 2 1 1 1 1 1 2 2 1 2 2 2 2 3 3 4 5 5 5 5
-1 -0 1 1 1 -0 1 1 2 1 2 -0 0 -1 -3 1 1 1 2 2 2 3 3 2 2 1 1 1 1 1 0 0 1 1 0 1 2 1 1 1 1 1 0 0
-1 -1 0 0 1 0 0 1 -1 -0 -0 -1 -1 1 0 -0 0 -0 1 1 2 2 3 3 2 1 1 1 2 1 -0 -0 -1 -2 -2 -2 -1 -1 -2 -2 -2 -2 -3 -3
0 1 0 0 1 0 -0 -0 -3 -4 -0 -1 0 3 1 -1 -2 -1 -0 1 2 2 3 2 1 1 1 1 2 2 1 1 -0 -3 -9 -11 -11 -9 -7 -6 -6 -7 -8 -9
-3 -3 1 0 1 1 2 -0 -3 -10 0 2 1 4 2 -1 1 1 2 2 2 3 2 1 1 0 1 1 1 -3 -5 -3 -6 -11 -14 -15 -14 -14 -14 -14 -14 -14 -14 -15
1 2 1 1 1 0 2 2 0 1 1 4 -0 -1 -2 -1 1 2 2 2 2 2 1 1 1 0 1 2 1 -2 -9 -12 -13 -14 -14 -13 -14 -13 -12 -13 -13 -14 -16 -18
0 4 2 1 1 1 1 1 2 0 1 3 0 0 1 0 2 1 2 2 2 2 1 1 0 0 1 2 2 -1 -10 -12 -13 -13 -12 -12 -11 -11 -11 -12 -13 -15 -17 -21
0 1 3 2 3 3 4 3 2 1 1 2 3 -2 -2 -0 0 -1 -1 -0 0 0 -0 -1 -0 -0 1 2 1 -1 -7 -11 -11 -11 -11 -10 -10 -9 -10 -11 -12 -14 -17 -23
1 1 3 3 1 1 1 2 1 2 1 2 2 2 -4 -1 -1 -1 -1 -2 -2 -2 -1 -1 -0 0 1 1 0 -2 -6 -7 -8 -9 -9 -9 -9 -9 -9 -9 -11 -13 -17 -24
0 1 1 1 1 1 3 2 1 -1 0 2 2 -3 -4 -1 1 1 1 -1 -2 -2 -2 -1 -1 -0 -0 -1 -1 -3 -4 -4 -4 -6 -7 -8 -8 -8 -8 -8 -10 -13 -16 -25
-1 1 -0 -2 -3 1 4 2 1 1 1 1 2 0 -3 -4 -4 -3 -1 -0 -1 -1 -2 -2 -1 -1 -1 -2 -2 -3 -3 -2 -2 -2 -4 -5 -6 -7 -8 -8 -8 -12 -17 -26
-1 -1 0 0 -0 0 1 1 2 2 1 2 -1 -0 -2 -4 -5 -5 -4 -4 -4 -4 -3 -2 -2 -2 -1 -1 -2 -3 -3 -2 -2 -2 -2 -2 -5 -6 -7 -7 -7 -11 -18 -27
-0 -1 -0 -1 -1 -0 1 0 1 1 2 2 2 2 -1 -2 -2 -3 -4 -4 -5 -6 -5 -4 -3 -2 -2 -2 -2 -3 -3 -2 -1 -1 -2 -2 -3 -4 -6 -7 -7 -11 -19 -27
0 0 -1 -1 -3 -1 -3 -2 -0 -0 -0 0 2 -1 -4 -4 -5 -5 -5 -6 -6 -6 -6 -6 -5 -5 -4 -3 -2 -2 -3 -2 -1 -1 -1 -2 -2 -3 -5 -7 -7 -12 -22 -27
-0 -1 -1 -0 -3 -10 -13 -8 -5 -2 -3 -2 -2 -4 -5 -5 -5 -6 -7 -6 -6 -7 -7 -7 -6 -5 -4 -3 -2 -1 -1 -1 -0 0 -1 -2 -2 -2 -4 -6 -7 -13 -24 -27
-2 -1 -1 -1 -1 -6 -11 -5 -4 -4 -10 -5 -3 -4 -5 -6 -6 -9 -10 -8 -9 -9 -10 -10 -8 -5 -3 -2 -1 -1 -1 -0 -0 0 0 -1 -2 -2 -4 -6 -8 -16 -27 -24
-2 -2 -1 -0 0 -9 -17 -10 -6 -7 -14 -16 -7 -7 -7 -6 -6 -9 -8 -8 -8 -9 -9 -9 -9 -6 -4 -2 -0 -0 -1 -1 -0 0 0 -1 -2 -2 -4 -6 -10 -22 -27 -22
1 -0 1 1 1 -1 -5 -7 -6 -11 -14 -11 -8 -8 -8 -6 -7 -8 -7 -8 -7 -8 -7 -7 -7 -4 -2 -2 -1 -0 0 -0 0 0 0 -1 -2 -2 -5 -7 -15 -26 -24 -21
0 0 1 1 2 -2 -5 -5 -7 -12 -8 -7 -8 -8 -7 -8 -8 -8 -7 -7 -7 -6 -6 -6 -7 -3 -2 -2 -2 -1 -0 0 0 0 -1 -2 -2 -3 -6 -10 -21 -25 -21 -21
-4 -3 -2 -1 -2 -6 -5 -6 -7 -6 -6 -7 -6 -6 -8 -6 -7 -7 -7 -7 -7 -6 -5 -6 -7 -6 -3 -2 -3 -3 -2 -0 0 -1 -2 -2 -2 -5 -7 -15 -25 -22 -20 -21
-7 -6 -4 -6 -9 -6 -9 -9 -8 -6 -6 -5 -5 -5 -5 -5 -7 -7 -6 -7 -6 -6 -6 -7 -7 -7 -7 -3 -2 -2 -2 -1 -1 -2 -2 -2 -4 -6 -11 -22 -25 -20 -20 -21
-8 -7 -7 -6 -8 -7 -9 -5 -4 -6 -5 -4 -3 -4 -4 -5 -6 -6 -6 -6 -6 -6 -6 -6 -7 -7 -6 -4 -2 -2 -2 -2 -2 -2 -3 -4 -6 -8 -17 -24 -21 -20 -20 -21
-5 -6 -5 -5 -7 -4 -3 -4 -6 -7 -4 -2 -3 -4 -4 -5 -6 -5 -5 -4 -5 -5 -5 -7 -7 -5 -5 -4 -1 -2 -2 -2 -2 -3 -4 -5 -6 -12 -21 -24 -20 -20 -20 -21

GFSCGP_850_dewp_123.txt.gz
Dewpoint
-5 -2 -1 -2 -4 -7 -3 -5 -2 -1 -1 -0 -2 -1 -2 -5 -4 -5 -6 -6 -3 -2 1 2 2 2 1 1 0 -0 -1 1 2 2 1 2 3 3 3 2 3 4 4 4
-2 0 -2 -3 -3 -3 -3 -2 1 1 -0 0 1 1 -1 -2 -2 -4 -4 -5 -5 -5 -0 2 2 2 1 1 0 0 0 2 2 2 3 3 4 4 4 4 4 4 4 5
-1 -2 -2 -2 -1 0 1 -1 -1 -2 -0 -1 -0 -3 -7 -1 0 0 -0 -1 -2 -4 -3 2 2 2 2 1 1 0 1 2 2 2 2 3 3 4 4 3 4 4 5 4
-1 -2 -1 -0 1 -2 1 1 1 1 -2 -3 -2 0 -6 -4 -0 1 1 0 -0 -1 -0 2 2 2 2 1 1 1 1 1 1 1 2 2 1 1 1 1 1 2 1 0
-0 -0 -0 1 1 -1 2 1 1 1 1 -1 -1 1 -3 -1 -1 -1 0 1 0 0 2 2 2 2 2 1 1 1 1 1 1 0 -0 0 0 0 -1 -1 -2 -3 -3 -3
-1 -1 0 0 1 0 1 -0 -2 -1 -0 -0 -0 0 -1 -2 -1 -1 -0 1 1 2 2 2 2 2 2 1 1 1 -0 -0 -1 -1 -2 -2 -2 -2 -2 -3 -4 -4 -5 -7
-0 0 0 0 1 -0 -0 -1 -1 0 1 1 -0 3 0 -3 -3 -1 -1 -0 1 1 2 2 2 2 1 1 1 2 1 1 -0 -4 -11 -14 -14 -14 -13 -13 -13 -14 -14 -15
-1 -3 0 0 0 1 2 -1 -1 -3 -2 2 1 4 1 -2 1 -1 -0 1 1 1 2 2 2 1 -0 1 2 0 -1 -1 -6 -10 -14 -14 -14 -14 -13 -13 -13 -14 -15 -17
2 3 1 1 1 -0 3 2 -1 1 1 3 -0 -1 -2 -1 -1 1 1 1 1 1 2 2 1 0 -0 1 1 -3 -6 -10 -13 -13 -13 -12 -12 -12 -12 -12 -13 -14 -15 -18
0 4 2 2 1 2 1 0 1 1 1 3 1 0 2 -1 1 0 0 0 0 1 1 1 -0 -0 -0 1 1 -1 -6 -11 -12 -11 -11 -11 -10 -10 -10 -10 -11 -13 -15 -17
-0 1 3 2 3 3 3 3 1 1 1 3 2 -2 -2 -1 -1 -1 -1 -2 -2 -1 -1 -1 -1 -1 -1 0 0 -2 -5 -9 -10 -10 -10 -9 -10 -9 -9 -9 -10 -11 -13 -16
1 0 3 2 1 0 1 2 1 1 1 2 2 1 -5 -3 -0 -1 -1 -2 -3 -2 -2 -2 -2 -1 -1 -1 -0 -3 -4 -6 -8 -9 -9 -9 -9 -9 -9 -8 -8 -9 -11 -14
0 1 2 1 0 1 3 2 0 -1 -0 2 1 -5 -6 -4 -1 0 1 0 -1 -2 -3 -4 -3 -3 -2 -1 -2 -3 -3 -5 -6 -6 -7 -7 -7 -8 -8 -8 -8 -8 -9 -13
-1 0 -1 -1 -3 1 4 2 0 1 2 1 1 -1 -3 -5 -5 -6 -6 -4 -3 -4 -4 -3 -2 -3 -3 -2 -2 -3 -4 -4 -4 -3 -3 -3 -4 -6 -7 -7 -7 -7 -8 -11
-2 -1 -0 -0 -1 -0 1 2 2 2 1 2 -1 -0 -3 -4 -4 -3 -2 -3 -5 -6 -6 -6 -5 -4 -3 -2 -2 -2 -3 -3 -3 -3 -2 -2 -2 -4 -5 -5 -6 -7 -7 -10
-1 -1 -1 -2 -1 -1 1 0 1 2 2 1 1 2 -2 -2 -3 -4 -6 -6 -6 -6 -6 -6 -6 -5 -5 -3 -2 -2 -2 -3 -3 -2 -2 -2 -2 -2 -3 -3 -4 -5 -6 -9
-0 -1 -1 -2 -2 -2 -4 -3 -0 0 0 1 2 -1 -3 -4 -5 -5 -7 -8 -8 -8 -7 -7 -7 -6 -6 -5 -4 -3 -3 -1 -2 -2 -2 -1 -1 -2 -2 -3 -4 -5 -6 -9
-1 -1 -1 -1 -4 -10 -13 -7 -4 -2 -2 -1 -2 -3 -4 -4 -6 -9 -10 -8 -9 -10 -10 -10 -9 -10 -9 -6 -5 -3 -3 -2 -1 -1 -1 -1 -0 -1 -2 -2 -3 -4 -6 -10
-3 -2 -1 -1 -1 -7 -10 -6 -5 -5 -10 -6 -3 -4 -6 -8 -7 -7 -10 -8 -7 -7 -7 -8 -8 -8 -8 -8 -4 -2 -1 -1 -1 -1 -1 -1 -0 0 -2 -2 -3 -5 -6 -12
-2 -3 -2 -0 -0 -10 -17 -10 -6 -7 -13 -13 -6 -8 -8 -7 -5 -7 -8 -8 -8 -7 -7 -7 -7 -6 -7 -6 -2 -2 -1 -0 -0 -1 -1 -1 -0 1 -1 -2 -3 -5 -7 -16
1 -0 1 1 1 -1 -6 -7 -6 -11 -13 -10 -7 -7 -7 -6 -7 -8 -6 -8 -7 -7 -7 -7 -5 -6 -7 -5 -2 -2 -1 -1 -0 0 -1 -0 0 1 -1 -2 -3 -5 -9 -21
-0 1 1 0 2 -3 -5 -6 -7 -12 -7 -7 -7 -6 -5 -5 -5 -5 -6 -7 -7 -7 -7 -7 -5 -5 -7 -6 -4 -2 -3 -3 -1 0 1 0 1 0 -2 -2 -4 -6 -13 -25
-4 -3 -2 -1 -2 -7 -5 -7 -7 -6 -5 -6 -6 -5 -4 -4 -4 -4 -5 -6 -6 -6 -6 -6 -6 -7 -7 -6 -6 -4 -2 -2 -2 -1 0 0 -0 -2 -2 -3 -5 -8 -19 -24
-7 -6 -4 -6 -6 -6 -8 -8 -5 -5 -6 -8 -7 -3 -3 -3 -4 -4 -6 -6 -6 -5 -5 -5 -5 -6 -7 -8 -7 -5 -2 -2 -2 -1 -1 -1 -2 -2 -3 -4 -7 -13 -24 -22
-8 -6 -6 -6 -8 -6 -8 -5 -6 -7 -10 -10 -9 -5 -3 -3 -4 -5 -5 -5 -4 -4 -4 -5 -5 -6 -7 -7 -5 -5 -3 -2 -2 -2 -2 -2 -2 -3 -4 -6 -10 -19 -24 -21
-6 -7 -6 -5 -7 -4 -4 -8 -8 -10 -9 -9 -7 -8 -5 -3 -3 -3 -4 -4 -4 -5 -5 -7 -8 -8 -6 -4 -4 -4 -2 -2 -2 -2 -2 -2 -3 -4 -5 -7 -13 -22 -22 -21

GFSCGP_850_dewp_126.txt.gz
Dewpoint
-3 -3 -1 -4 -5 -5 -5 -3 -2 -2 -1 -1 -4 -3 -5 -6 -5 -7 -8 -6 -3 2 3 0 1 2 2 1 1 0 -0 -0 1 1 2 3 3 3 3 3 3 4 4 4
-1 0 -2 -4 -5 -5 -6 -4 -0 -0 -0 -1 -1 -3 -6 -7 -5 -6 -7 -7 -6 -3 2 -1 0 2 2 2 1 1 0 1 2 2 2 2 3 3 3 4 4 4 4 4
-2 -1 -2 -3 -3 -3 -2 -5 -2 1 -1 -2 -2 -7 -5 -5 -4 -3 -3 -3 -3 -3 -2 2 -1 1 2 2 1 1 0 1 1 2 2 2 3 3 3 2 2 3 3 2
-1 -2 -2 -2 -0 -2 -1 0 -1 -1 -3 -2 -2 -0 -6 -7 -5 -1 -0 1 0 1 -0 2 -0 1 2 2 1 1 0 1 1 1 2 2 1 1 0 0 0 -0 -1 -1
1 -1 -0 1 2 -0 1 0 -0 -1 -1 -1 -2 3 -6 -5 -6 -5 -3 1 1 2 2 2 0 2 2 2 1 0 1 1 1 1 0 0 0 -0 -0 -1 -2 -3 -3 -5
1 0 1 1 0 -0 -0 -1 -0 -0 0 3 0 -0 -4 -4 -4 -1 -1 -0 2 2 1 2 2 2 2 2 1 1 1 0 -0 -0 -1 -1 -2 -3 -3 -5 -7 -11 -13 -14
0 1 0 -0 1 -0 -0 1 8 7 10 4 1 2 -4 -3 -3 -2 -0 0 2 2 2 2 2 2 2 2 0 1 1 0 0 -1 -5 -10 -14 -14 -14 -14 -14 -14 -14 -16
4 2 1 1 0 0 1 -0 7 10 1 3 1 4 -1 -2 1 -1 -0 1 1 1 1 2 1 2 2 1 -0 1 1 1 1 -3 -11 -14 -14 -14 -13 -13 -13 -13 -14 -16
2 5 1 1 1 0 2 3 -1 3 2 2 -0 -1 -2 -2 -1 -2 1 2 2 1 1 0 1 1 1 -0 -0 1 0 -2 -5 -9 -11 -13 -13 -13 -12 -11 -11 -12 -13 -15
0 5 2 2 1 1 1 -0 3 3 4 2 2 0 4 3 2 -1 -1 0 1 1 -0 -1 -1 -1 -1 -1 -0 0 -4 -6 -10 -12 -13 -13 -12 -11 -10 -10 -9 -9 -11 -13
-0 1 3 2 2 2 2 3 1 1 2 3 -1 -4 -3 -1 -1 -1 -2 -2 -2 -3 -3 -2 -2 -2 -2 -1 -1 -0 -2 -4 -8 -11 -12 -11 -10 -10 -9 -8 -8 -8 -9 -11
1 1 4 2 1 1 1 1 -0 0 2 1 1 -3 -5 -3 -1 -0 -1 -0 -1 -3 -3 -4 -4 -4 -3 -2 -1 -1 -1 -2 -5 -7 -10 -10 -10 -9 -8 -8 -7 -7 -7 -8
1 1 4 3 2 2 3 2 1 -1 -0 2 -1 -7 -7 -4 -2 -2 -4 -5 -4 -3 -3 -2 -3 -3 -3 -3 -2 -2 -2 -2 -4 -5 -6 -8 -8 -7 -7 -6 -6 -6 -7 -7
-0 1 1 -1 -0 2 3 3 1 0 3 0 -1 -4 -6 -6 -5 -4 -4 -4 -5 -5 -5 -5 -4 -4 -5 -4 -3 -2 -2 -2 -2 -3 -4 -5 -5 -4 -5 -5 -5 -5 -6 -6
-1 0 -0 -1 -1 -0 1 3 2 2 1 -0 -3 -2 -4 -3 -4 -4 -5 -6 -7 -7 -6 -5 -4 -6 -6 -5 -5 -3 -2 -2 -2 -2 -2 -4 -3 -3 -3 -3 -4 -5 -5 -6
-0 0 -1 0 -2 -2 -1 -2 -0 2 1 1 -0 -0 -4 -4 -5 -7 -7 -8 -7 -7 -7 -7 -7 -7 -6 -6 -6 -5 -4 -2 -1 -1 -2 -3 -3 -2 -2 -2 -3 -4 -4 -5
-0 -0 -0 -2 -3 -3 -3 -4 -3 -2 -1 -1 -1 -4 -4 -6 -7 -7 -8 -7 -7 -7 -6 -7 -7 -7 -7 -8 -7 -7 -5 -4 -3 -2 -1 -1 -2 -2 -2 -1 -2 -3 -3 -4
-0 -1 0 1 -2 -4 -11 -6 -5 -3 -4 -2 -3 -4 -5 -5 -6 -7 -8 -7 -7 -7 -6 -6 -6 -7 -7 -7 -7 -8 -7 -3 -2 -2 -2 -1 -0 -1 -1 -1 -1 -2 -3 -3
-2 -2 -0 -0 -3 -6 -8 -6 -4 -4 -9 -6 -4 -6 -7 -7 -7 -7 -8 -8 -7 -6 -7 -7 -7 -7 -7 -6 -6 -7 -5 -2 -1 -1 -1 -1 -0 0 -0 -0 -0 -2 -3 -3
-2 -2 -2 -1 -1 -12 -13 -9 -6 -6 -10 -10 -6 -7 -7 -6 -4 -7 -6 -5 -6 -6 -7 -6 -7 -7 -7 -5 -6 -7 -3 -2 -2 -1 0 -0 -0 -0 0 -0 0 -1 -3 -3
1 1 1 0 0 -4 -7 -6 -6 -8 -11 -8 -7 -6 -6 -6 -6 -6 -5 -4 -5 -5 -7 -6 -7 -7 -5 -6 -6 -7 -5 -4 -2 -2 -0 0 0 0 0 0 1 -1 -3 -3
-1 1 1 0 1 -1 -5 -5 -6 -7 -5 -5 -6 -6 -6 -5 -3 -3 -4 -4 -5 -6 -6 -5 -5 -5 -6 -6 -6 -6 -6 -5 -4 -2 -3 -2 0 0 0 1 1 -2 -3 -4
-4 -3 -3 -2 -3 -5 -5 -6 -6 -5 -5 -5 -6 -7 -6 -4 -3 -3 -4 -5 -5 -5 -4 -4 -4 -5 -5 -5 -6 -7 -8 -8 -5 -3 -2 -2 -0 1 0 0 -1 -3 -3 -5
-6 -5 -4 -5 -6 -5 -6 -7 -5 -6 -6 -9 -9 -8 -7 -5 -3 -3 -3 -3 -4 -4 -5 -5 -5 -6 -7 -8 -8 -7 -6 -6 -5 -2 -2 -2 -0 0 -0 -1 -3 -3 -4 -7
-7 -6 -5 -5 -7 -7 -7 -5 -7 -9 -9 -8 -7 -8 -7 -5 -5 -4 -4 -4 -4 -4 -6 -7 -8 -9 -7 -5 -5 -4 -4 -4 -3 -2 -2 -2 -2 -2 -2 -3 -3 -4 -6 -9
-7 -7 -7 -7 -6 -4 -4 -9 -10 -10 -9 -9 -9 -8 -8 -8 -7 -6 -6 -6 -6 -6 -6 -6 -6 -5 -5 -5 -4 -4 -3 -3 -2 -2 -2 -2 -2 -2 -3 -3 -4 -5 -7 -13

GFSCGP_850_dewp_132.txt.gz
Dewpoint
-1 1 2 -1 -1 -2 -2 0 0 0 -2 -4 -3 -4 -7 -7 -8 -8 -10 -9 -8 -3 -1 2 3 3 -1 -2 -2 -1 -0 0 0 -0 1 5 4 2 3 3 3 3 3 3
2 2 -3 -4 -5 -4 -3 -1 1 -0 -2 -2 -3 -2 -3 -6 -7 -7 -8 -10 -10 -6 -1 2 3 2 0 -1 -2 -1 0 0 0 -0 1 2 1 3 3 3 3 2 3 2
3 -1 -3 -4 -5 -3 -3 -1 1 2 -2 -3 -4 -3 -4 -5 -8 -8 -7 -8 -10 -10 -5 -1 1 1 1 0 -1 -0 1 1 0 0 1 2 2 3 3 2 1 1 -0 -1
-1 -3 -3 -3 -0 -0 1 -3 -1 0 2 4 -4 4 -5 -6 -7 -8 -7 -7 -7 -7 -6 -5 -3 0 1 2 2 1 1 1 -0 0 1 2 4 5 2 -0 -1 -1 -1 -2
-0 -1 -1 2 1 -0 1 -4 -3 -2 -2 -1 -4 4 -2 -6 -6 -5 -5 -4 -4 -2 -2 -2 -3 -2 1 3 2 2 1 1 -0 0 0 1 1 0 -0 -1 -1 -3 -9 -14
1 -0 0 -0 -1 -1 -2 -2 -2 -2 2 4 -1 0 1 -2 -2 -0 -2 -2 0 1 1 1 0 0 2 3 2 1 1 -0 -0 0 0 0 -0 -0 -1 -4 -9 -14 -15 -15
2 2 0 -1 -0 -1 -0 2 7 5 1 6 1 -0 -2 -3 -2 -0 -0 0 1 2 2 2 2 2 2 2 1 1 1 -1 -1 -0 -0 -1 -1 -4 -10 -14 -15 -14 -13 -14
4 2 2 -0 0 0 1 2 7 4 4 6 -0 1 0 -1 -1 -1 -1 0 1 2 3 3 3 2 2 1 1 0 -0 -1 -1 -0 -0 -1 -3 -8 -14 -14 -13 -12 -12 -12
4 5 1 0 -1 1 -0 4 -1 3 -1 4 4 1 -1 -1 -1 -1 0 1 1 2 2 1 1 0 -1 -2 -2 -2 -2 -2 -1 -0 -0 -2 -5 -11 -14 -13 -12 -11 -10 -10
0 4 1 1 1 -0 1 -1 2 4 4 3 4 0 7 2 1 -1 0 -1 -1 -1 -2 -3 -4 -5 -6 -5 -5 -4 -4 -3 -2 -1 -1 -3 -7 -11 -12 -12 -11 -10 -9 -9
-2 2 3 1 1 1 0 1 1 1 2 6 2 3 -2 1 1 -0 -2 -2 -2 -1 -2 -2 -3 -3 -2 -2 -2 -3 -3 -3 -2 -1 -2 -5 -8 -11 -12 -11 -10 -9 -8 -7
-1 1 4 2 1 0 1 1 -2 1 2 0 1 1 -3 -1 -1 -3 -5 -5 -6 -6 -6 -6 -7 -6 -3 -1 -1 -0 -1 -1 -2 -1 -0 -2 -4 -7 -10 -10 -9 -8 -8 -7
0 2 3 2 2 1 2 0 0 -1 1 2 2 -1 -2 -1 -3 -5 -6 -7 -7 -8 -8 -8 -7 -8 -6 -5 -2 -1 -1 -1 -0 0 0 0 -0 -2 -5 -8 -8 -8 -7 -6
1 0 3 2 3 2 2 1 0 0 3 1 -0 -4 -2 -4 -5 -6 -7 -8 -9 -9 -8 -7 -7 -6 -6 -5 -4 -3 -3 -1 -0 0 0 0 0 0 -1 -3 -5 -7 -7 -6
-1 1 -1 -2 -1 -1 1 2 1 2 1 1 -2 -4 -4 -5 -6 -7 -8 -8 -8 -8 -8 -7 -7 -6 -5 -5 -5 -5 -3 -3 -2 -0 0 -0 0 1 1 1 -1 -3 -6 -6
-1 1 -1 -0 -3 -3 -2 -2 1 1 1 0 -0 -0 -6 -7 -8 -7 -7 -7 -7 -8 -7 -7 -6 -6 -6 -5 -4 -4 -5 -5 -5 -5 -5 -3 -1 0 1 1 1 -0 -3 -5
-2 -0 0 -1 -5 -4 -3 -3 -3 -0 -1 -0 1 -2 -5 -6 -6 -7 -7 -7 -7 -7 -6 -6 -5 -5 -5 -5 -5 -5 -6 -6 -5 -6 -6 -5 -2 -0 0 1 1 1 0 -2
-2 -2 -0 1 -1 -3 -7 -7 -5 -5 -5 -5 -5 -5 -5 -7 -7 -7 -6 -6 -7 -6 -6 -4 -4 -4 -5 -6 -6 -5 -4 -6 -6 -7 -6 -5 -2 -0 0 1 1 1 1 -0
-2 -2 -0 1 -1 -4 -8 -8 -5 -4 -5 -8 -6 -6 -7 -6 -6 -6 -7 -7 -6 -4 -4 -4 -5 -5 -5 -5 -4 -5 -5 -6 -6 -6 -6 -6 -4 -2 -1 0 1 1 1 1
-2 -2 -0 -2 -1 -3 -6 -7 -7 -7 -6 -6 -7 -7 -6 -6 -4 -6 -8 -9 -4 -4 -4 -5 -5 -5 -5 -5 -5 -5 -6 -6 -6 -6 -7 -7 -7 -5 -3 -1 0 1 2 1
-0 -1 -0 -0 0 -1 -7 -6 -7 -7 -6 -7 -5 -5 -6 -6 -7 -8 -8 -5 -4 -4 -4 -4 -5 -5 -7 -9 -10 -10 -9 -8 -8 -7 -7 -7 -6 -6 -3 -2 -1 0 1 1
-0 0 0 -1 1 -1 -6 -6 -4 -5 -6 -5 -6 -6 -8 -7 -7 -6 -5 -6 -5 -5 -5 -6 -7 -7 -7 -6 -6 -6 -5 -5 -5 -5 -5 -5 -5 -4 -3 -2 -2 -1 0 0
-2 -3 -2 -2 -1 -5 -6 -5 -5 -6 -6 -6 -8 -8 -8 -8 -7 -7 -6 -6 -6 -6 -6 -6 -6 -6 -6 -6 -6 -6 -6 -6 -6 -6 -5 -5 -4 -3 -2 -2 -2 -1 -0 -0
-6 -5 -5 -5 -4 -5 -5 -5 -5 -8 -11 -10 -9 -8 -8 -7 -7 -7 -7 -7 -7 -7 -7 -7 -7 -7 -7 -7 -6 -6 -6 -5 -5 -5 -5 -4 -3 -3 -3 -3 -3 -2 -2 -1
-6 -5 -5 -5 -6 -6 -6 -5 -6 -10 -9 -9 -9 -9 -8 -8 -8 -8 -8 -9 -9 -10 -10 -10 -11 -11 -10 -9 -8 -7 -7 -6 -6 -5 -5 -5 -4 -4 -3 -3 -3 -3 -3 -3
-7 -6 -5 -4 -7 -6 -5 -5 -9 -9 -9 -8 -8 -7 -7 -8 -10 -11 -12 -12 -13 -13 -14 -15 -15 -15 -15 -15 -15 -14 -11 -9 -7 -6 -6 -4 -4 -3 -4 -4 -4 -4 -3 -3

GFSCGP_850_dewp_135.txt.gz
Dewpoint
-1 0 1 -1 -1 -2 -2 -0 1 -1 -3 -5 -4 -5 -6 -8 -9 -9 -9 -8 -6 -7 -6 -3 -1 -0 -1 -2 -3 -2 -2 -1 -0 -0 0 1 2 2 1 2 3 3 2 2
2 1 -2 -2 -1 -2 -3 0 1 -1 -2 -2 -4 -4 -5 -7 -7 -9 -10 -9 -9 -7 -4 -1 1 1 0 -0 -2 -3 -2 -0 0 0 -0 0 1 1 2 2 2 1 1 1
2 -1 -4 -4 -4 -4 -2 0 0 -0 -2 -4 -5 -5 -6 -4 -7 -8 -9 -11 -10 -10 -5 -1 0 -1 -0 -0 -1 -2 -2 0 0 -1 -0 1 2 2 2 1 0 0 -0 -0
-2 -4 -3 -2 0 -1 -1 -2 -0 0 -0 -1 -5 -1 -4 -6 -5 -6 -7 -7 -8 -7 -5 -1 -1 -1 -1 -1 0 -1 -0 1 0 -1 0 1 2 3 2 1 -1 -2 -2 -4
0 -0 1 1 0 -0 -2 -2 -1 -1 -3 -2 -5 -3 -10 -6 -5 -6 -6 -6 -6 -6 -5 -3 -2 -2 -1 0 1 0 1 1 0 -1 0 0 1 1 0 -0 -1 -4 -10 -15
1 -0 0 -0 -1 -1 -2 -2 2 2 0 0 -2 -3 -4 -3 -3 -0 -2 -3 -3 -2 -1 -0 -0 -1 -0 -0 0 1 1 0 -0 -1 -0 0 -0 -0 -1 -2 -7 -13 -16 -15
2 2 0 -0 -1 -1 -1 1 0 -3 -3 -1 1 -3 -6 -2 -0 -1 1 1 1 1 -0 -0 0 0 1 0 0 0 -0 -1 -1 -1 -1 -0 -1 -1 -2 -8 -14 -15 -14 -14
2 -1 2 0 -0 -1 0 3 -0 -4 1 2 -0 -2 -5 -1 -1 -0 0 1 2 1 1 1 1 0 -0 -1 -1 -2 -3 -3 -2 -2 -1 -1 -1 -2 -4 -11 -15 -14 -13 -12
4 3 1 1 -0 -1 -2 3 -0 0 1 1 -0 -0 -1 -0 -0 -1 1 1 1 1 0 -1 -2 -3 -4 -4 -4 -3 -3 -3 -3 -2 -1 -1 -1 -2 -5 -11 -14 -13 -12 -11
1 4 1 1 1 -1 -1 -1 -2 1 0 2 2 0 2 1 -0 1 -0 -1 -2 -2 -3 -3 -3 -3 -3 -3 -3 -3 -3 -3 -2 -2 -1 -1 -1 -1 -5 -9 -12 -12 -11 -10
-1 2 3 1 2 0 -1 1 1 1 3 4 4 2 -1 1 1 -1 -2 -2 -3 -3 -4 -5 -5 -6 -5 -3 -3 -3 -2 -1 -2 -2 -1 -1 -1 -2 -5 -8 -11 -11 -10 -9
-1 2 4 2 1 0 1 1 -2 1 1 0 1 -0 -2 -1 -1 -4 -5 -6 -7 -7 -8 -8 -8 -9 -8 -6 -4 -2 -1 -2 -3 -2 -1 -1 -1 -0 -2 -3 -5 -9 -10 -10
1 1 2 1 0 0 0 0 -0 -1 0 1 -0 -2 -2 -1 -2 -5 -6 -7 -8 -9 -8 -7 -8 -8 -7 -7 -5 -3 -1 -2 -2 -1 -1 -2 -2 -1 -2 -1 -1 -1 -5 -9
1 1 0 -2 -2 0 2 1 0 -1 1 -0 1 -4 -0 -1 -5 -7 -8 -8 -8 -8 -8 -7 -7 -7 -6 -6 -6 -6 -5 -4 -3 -3 -3 -4 -4 -4 -3 -1 -0 1 1 -2
-1 1 -2 -2 -1 -1 1 1 1 1 -0 -1 -1 -4 -2 -3 -6 -8 -8 -8 -8 -8 -7 -7 -7 -7 -6 -6 -5 -4 -4 -5 -5 -4 -3 -4 -3 -2 -1 -0 0 1 1 1
-2 0 -2 -2 -3 -4 -3 -3 1 1 1 1 0 -0 -4 -7 -8 -7 -7 -8 -7 -7 -6 -6 -7 -7 -5 -5 -6 -6 -5 -5 -5 -4 -4 -5 -4 -3 -2 -1 -0 1 1 1
-2 -2 -1 -2 -5 -5 -8 -4 -3 1 1 -0 1 -2 -5 -6 -7 -7 -7 -6 -6 -6 -7 -8 -6 -5 -5 -5 -5 -5 -5 -5 -5 -6 -6 -7 -6 -5 -3 -1 0 1 1 2
-2 -1 -1 -0 -3 -9 -14 -8 -6 -3 -1 -2 -3 -5 -7 -7 -6 -6 -6 -8 -9 -9 -6 -5 -5 -6 -6 -5 -5 -5 -5 -5 -6 -6 -6 -6 -7 -7 -6 -5 -3 -1 1 2
-2 -3 -1 -1 -1 -7 -8 -9 -5 -4 -4 -7 -5 -6 -6 -6 -6 -6 -7 -9 -7 -4 -4 -5 -5 -5 -5 -5 -6 -7 -9 -10 -10 -10 -9 -9 -8 -8 -8 -8 -6 -4 -2 0
-2 -2 -3 -2 -4 -4 -8 -7 -6 -9 -9 -6 -6 -7 -6 -6 -6 -6 -7 -9 -7 -4 -4 -5 -5 -6 -8 -9 -8 -7 -7 -7 -7 -7 -7 -7 -6 -6 -7 -7 -6 -5 -3 -2
-1 -2 -1 -1 -0 -3 -7 -7 -7 -11 -12 -6 -6 -6 -6 -7 -7 -8 -8 -7 -5 -5 -6 -7 -7 -6 -6 -6 -6 -6 -6 -6 -6 -6 -6 -6 -6 -6 -5 -4 -3 -3 -3 -2
-2 -1 -1 -1 -0 -2 -6 -6 -8 -8 -5 -5 -6 -6 -8 -9 -9 -8 -7 -7 -6 -6 -6 -6 -6 -6 -7 -7 -7 -7 -6 -6 -6 -6 -6 -6 -6 -5 -4 -4 -4 -3 -3 -2
-2 -2 -1 -2 -2 -5 -6 -6 -5 -6 -6 -6 -8 -9 -9 -9 -7 -7 -6 -6 -7 -7 -7 -8 -8 -9 -10 -10 -10 -9 -9 -8 -8 -7 -7 -6 -5 -5 -4 -4 -4 -4 -4 -3
-6 -5 -4 -5 -6 -5 -6 -5 -6 -7 -8 -10 -10 -10 -9 -8 -7 -7 -8 -9 -10 -12 -13 -15 -16 -17 -19 -19 -18 -15 -15 -14 -14 -12 -10 -8 -7 -5 -5 -4 -4 -4 -4 -4
-7 -6 -5 -5 -6 -5 -5 -6 -6 -9 -10 -9 -9 -8 -8 -8 -8 -10 -13 -13 -13 -14 -14 -15 -17 -20 -22 -23 -25 -23 -17 -15 -14 -14 -15 -15 -13 -9 -7 -5 -4 -3 -4 -4
-6 -6 -5 -6 -7 -7 -6 -5 -6 -10 -9 -9 -8 -8 -9 -11 -12 -12 -12 -13 -16 -21 -23 -23 -23 -24 -25 -27 -29 -27 -23 -19 -18 -16 -16 -15 -14 -12 -10 -8 -6 -5 -3 -4

GFSCGP_850_dewp_138.txt.gz
Dewpoint
-1 0 1 -1 -2 -2 -1 -1 -1 -1 -4 -4 -4 -6 -7 -7 -7 -7 -6 -5 -4 -4 -7 -4 -2 -3 -3 -3 -3 -4 -3 -3 -1 0 -0 -0 1 1 1 1 1 2 1 0
2 1 -2 -2 -1 -2 -1 0 0 -1 -3 -4 -4 -3 -5 -7 -8 -8 -9 -8 -7 -6 -7 -4 -3 -2 -1 0 -0 -1 -2 -3 -1 0 -0 -0 1 1 1 1 0 -0 0 0
1 -1 -3 -2 -2 -3 -1 -1 0 -1 -2 -5 -5 -4 -5 -4 -7 -8 -9 -10 -10 -10 -8 -7 -4 -2 -0 -0 0 -0 -1 -2 0 0 -1 -0 1 1 0 0 -0 -1 -1 -1
-2 -4 -3 -2 -1 -1 -1 -2 -1 -0 -3 -0 -6 -1 -6 -6 -5 -6 -7 -8 -9 -10 -10 -9 -4 -2 -1 -1 0 -1 -0 -1 0 0 -1 -0 0 1 1 0 -1 -2 -3 -5
-1 -1 0 -0 -0 -1 -1 -1 -2 -2 -2 -4 -5 -3 -9 -6 -6 -7 -7 -7 -7 -6 -6 -7 -4 -1 -0 1 -0 0 0 0 0 0 -2 -1 -0 0 0 -0 -1 -2 -7 -15
1 0 -0 -1 -1 -2 -3 -0 -1 -2 -3 -0 -4 -6 -10 -4 -5 -1 -1 -5 -5 -3 -3 -3 -2 -1 -0 1 -1 0 0 0 -0 -1 -2 -1 -1 -0 -1 -1 -3 -8 -14 -15
1 1 1 -0 -2 -2 -1 -2 -2 -3 -2 -1 1 -3 -8 -3 -1 -2 1 0 0 0 0 -0 -0 -1 -1 -0 0 0 -0 -1 -2 -2 -3 -2 -1 -1 -1 -2 -5 -14 -15 -15
1 0 1 1 -1 -2 1 -2 -1 -5 -1 -0 -1 0 -7 -1 -0 1 1 1 1 1 0 0 0 -0 -0 -1 -2 -2 -3 -3 -3 -3 -3 -2 -1 -1 -2 -3 -7 -13 -14 -13
3 1 1 1 -0 -2 -1 2 -1 -0 1 0 0 -2 -1 -1 -1 -0 1 1 1 1 -0 -2 -3 -4 -3 -3 -4 -3 -3 -3 -3 -2 -3 -2 -2 -1 -1 -2 -5 -11 -13 -13
-0 3 1 0 -0 -2 -3 -2 -0 1 0 -1 2 1 1 1 0 1 1 0 -1 -2 -3 -2 -2 -4 -5 -5 -3 -3 -3 -3 -2 -1 -2 -3 -2 -1 -1 -2 -5 -8 -11 -12
-0 1 3 -1 1 -1 -0 -0 0 0 1 3 4 2 -1 1 -0 1 -2 -2 -2 -3 -4 -7 -8 -8 -9 -9 -7 -4 -2 -1 -2 -2 -2 -2 -2 -1 -1 -2 -3 -4 -7 -10
-0 2 2 1 1 0 1 -0 -2 -2 -1 1 -0 -0 -2 0 -0 -2 -3 -6 -6 -8 -8 -8 -8 -8 -8 -8 -7 -5 -5 -1 -1 -1 -1 -1 -1 -1 -1 -1 -1 -0 -1 -1
0 1 2 0 -3 -1 0 -0 -1 -1 -1 -0 -3 -5 -3 -1 -2 -5 -6 -7 -8 -8 -7 -7 -8 -8 -8 -7 -6 -6 -5 -4 -3 -2 -1 -2 -2 -1 -2 -2 -2 -1 -0 0
-0 1 -2 -2 -4 -2 -0 1 -0 -1 1 -0 0 -3 -0 -0 -4 -6 -7 -8 -8 -8 -7 -7 -7 -8 -8 -7 -6 -5 -4 -4 -4 -5 -5 -5 -5 -3 -3 -2 -2 -1 -0 0
-1 1 -1 -2 -2 -0 0 0 1 -0 -2 -1 -4 -5 -2 -1 -5 -7 -8 -8 -8 -7 -7 -7 -7 -8 -8 -7 -6 -6 -6 -6 -6 -5 -5 -5 -5 -5 -5 -5 -4 -3 -1 0
-2 -1 -4 -2 -4 -4 -3 -2 1 1 -0 0 -0 -0 -3 -3 -7 -7 -7 -8 -7 -7 -7 -7 -8 -7 -6 -6 -6 -6 -6 -6 -5 -5 -5 -6 -6 -7 -7 -7 -6 -4 -3 -1
-2 -2 -2 -3 -4 -6 -8 -6 -1 1 0 -1 1 -1 -6 -7 -7 -7 -7 -6 -6 -7 -8 -8 -6 -6 -6 -6 -5 -5 -5 -5 -6 -6 -7 -7 -7 -7 -7 -7 -7 -6 -5 -3
-2 -2 -2 -1 -6 -11 -12 -7 -6 -1 0 -1 -2 -4 -6 -7 -6 -6 -7 -8 -8 -7 -7 -6 -5 -5 -5 -5 -6 -8 -9 -9 -9 -9 -8 -8 -8 -8 -8 -8 -8 -8 -8 -7
-3 -3 -1 -2 -4 -9 -7 -8 -5 -5 -6 -2 -3 -6 -6 -6 -6 -6 -7 -7 -8 -7 -5 -5 -5 -6 -8 -9 -8 -7 -7 -7 -7 -7 -7 -7 -7 -7 -7 -7 -7 -6 -6 -5
-3 -3 -4 -2 -6 -9 -9 -8 -7 -10 -9 -7 -5 -6 -6 -6 -6 -7 -7 -8 -7 -5 -5 -7 -8 -8 -6 -6 -6 -7 -7 -7 -7 -7 -8 -7 -6 -6 -6 -5 -5 -5 -4 -4
-2 -3 -2 -1 -1 -4 -7 -7 -8 -11 -14 -7 -6 -6 -6 -6 -8 -8 -9 -7 -6 -6 -8 -7 -7 -6 -7 -7 -8 -9 -9 -9 -9 -9 -8 -8 -7 -6 -5 -5 -5 -5 -5 -4
-4 -2 -2 -2 -1 -7 -7 -6 -10 -10 -6 -6 -6 -6 -7 -8 -10 -9 -7 -7 -7 -6 -6 -7 -8 -9 -11 -14 -17 -17 -17 -18 -17 -17 -16 -14 -11 -8 -7 -5 -5 -5 -4 -4
-3 -5 -3 -5 -5 -7 -7 -8 -8 -7 -6 -6 -7 -8 -9 -10 -8 -7 -7 -7 -7 -8 -9 -11 -14 -17 -17 -18 -22 -24 -24 -23 -24 -23 -22 -18 -16 -15 -14 -11 -8 -6 -5 -4
-6 -5 -4 -5 -6 -5 -6 -6 -7 -7 -7 -7 -8 -10 -10 -10 -8 -7 -7 -8 -11 -14 -14 -15 -18 -20 -17 -20 -23 -26 -25 -23 -24 -22 -22 -22 -21 -21 -19 -14 -13 -11 -8 -6
-8 -6 -5 -5 -6 -5 -5 -6 -6 -7 -8 -10 -10 -10 -9 -8 -7 -8 -11 -13 -13 -15 -20 -21 -20 -19 -19 -24 -26 -28 -26 -22 -21 -21 -21 -21 -20 -18 -15 -13 -12 -11 -12 -9
-6 -6 -6 -6 -7 -6 -7 -6 -6 -8 -9 -10 -9 -8 -8 -8 -11 -12 -12 -15 -19 -21 -20 -20 -22 -24 -25 -26 -26 -27 -25 -23 -21 -19 -18 -18 -18 -16 -11 -8 -9 -10 -9 -8

GFSCGP_850_dewp_141.txt.gz
Dewpoint
3 1 1 -0 -1 -1 -1 -2 -1 -2 -4 -4 -4 -6 -5 -6 -5 -5 -5 -4 -3 -2 -2 -1 -1 -0 -1 -2 -2 -2 -3 -4 -4 -3 -0 -1 -1 0 0 1 1 1 0 0
4 2 -1 -2 -1 -1 -2 -1 -0 -2 -3 -4 -3 -4 -7 -7 -7 -7 -6 -6 -5 -5 -4 -3 -2 -2 -2 -1 -0 -2 -1 -2 -3 -1 -0 -1 -1 -0 0 1 0 -0 -0 -0
5 -1 -2 -2 -2 -1 -1 -2 -0 -1 -3 -5 -5 -3 -5 -5 -7 -8 -8 -8 -8 -7 -7 -5 -5 -5 -3 -1 -2 -0 -1 -1 -2 0 -0 -2 -1 0 1 1 0 -1 -2 -3
3 -3 -3 -2 -1 -2 -1 -2 -1 -1 -2 1 -5 -1 -6 -5 -5 -6 -7 -8 -9 -10 -10 -10 -8 -7 -5 -3 -1 -0 -0 0 -0 0 -0 -2 -1 -0 1 1 -0 -2 -3 -6
2 -1 -1 -1 -1 -2 -2 -2 -2 -3 -3 -4 -5 -2 -6 -6 -6 -6 -6 -6 -8 -9 -9 -9 -9 -9 -5 -2 0 1 0 1 0 0 -1 -2 -2 -1 0 -1 -2 -3 -5 -10
1 0 -0 -1 -1 -2 -2 -3 -4 -4 -2 -1 -5 -4 -8 -5 -6 -2 -2 -6 -7 -7 -5 -5 -5 -4 -2 0 1 1 0 0 -0 -1 -2 -3 -2 -1 -1 -2 -3 -4 -8 -14
1 0 0 -0 -2 -2 -3 -2 -1 -0 -1 0 0 -5 -7 -5 -1 -2 -1 -2 -2 -1 -1 -0 -1 -1 -1 -1 0 0 -0 -1 -1 -3 -2 -3 -3 -2 -2 -2 -3 -4 -10 -15
0 1 1 1 -1 -1 -1 -4 -1 -2 -2 -1 -1 -1 -6 -3 0 1 1 1 1 0 -0 -0 -0 -0 -1 -1 -2 -2 -3 -3 -2 -2 -2 -3 -3 -3 -2 -2 -3 -5 -9 -14
1 1 0 0 0 -2 -1 1 -2 -1 -0 0 0 -3 -2 -1 -1 0 1 1 1 0 -0 -1 -3 -3 -3 -3 -3 -3 -2 -2 -2 -1 -1 -2 -2 -2 -2 -1 -2 -3 -5 -9
-0 2 1 -0 -1 -2 -3 -2 1 1 1 -4 1 1 0 1 1 0 1 1 0 -2 -2 -2 -3 -5 -7 -8 -7 -4 -3 -2 -1 -1 -1 -2 -2 -1 -1 -1 -1 -1 -3 -5
-1 -0 1 -1 0 -1 -1 -0 0 -0 -0 2 2 -1 -2 0 -0 1 0 -2 -3 -2 -3 -6 -8 -8 -8 -8 -7 -7 -4 -2 -1 -1 -0 -1 -1 -1 -1 -1 -1 -1 -1 -2
-0 0 1 -0 1 0 0 -2 -1 -2 -2 0 -1 -1 -4 -1 -1 0 -2 -3 -4 -6 -8 -8 -8 -8 -8 -7 -7 -7 -6 -4 -2 -1 -1 -2 -2 -1 -1 -2 -2 -1 -0 0
-0 0 0 -1 -3 -2 0 0 -2 -2 -2 0 -1 -6 -3 -1 -1 -2 -4 -7 -8 -8 -7 -7 -7 -8 -8 -9 -8 -6 -6 -6 -6 -6 -5 -5 -5 -5 -4 -4 -3 -2 -2 -2
-1 1 -4 -4 -4 -2 -0 0 -1 -1 1 -1 -2 -4 -1 -0 -2 -5 -6 -8 -8 -8 -7 -7 -7 -7 -8 -9 -8 -7 -6 -6 -6 -6 -6 -6 -6 -6 -6 -5 -5 -5 -4 -4
-1 2 -1 -2 -2 -0 -1 -1 0 -1 -3 -3 -5 -3 -2 -1 -2 -6 -7 -8 -8 -8 -7 -7 -7 -7 -8 -8 -7 -6 -6 -6 -6 -6 -5 -6 -6 -6 -6 -7 -7 -7 -6 -6
-3 0 -4 -3 -4 -5 -4 -2 0 0 -1 -2 -2 -3 -5 -3 -3 -7 -8 -7 -7 -7 -7 -7 -7 -7 -6 -6 -6 -6 -6 -6 -6 -6 -8 -8 -9 -9 -9 -8 -8 -8 -7 -7
-2 -2 -2 -3 -3 -6 -7 -8 -2 0 -1 -1 0 -2 -5 -4 -6 -7 -7 -7 -7 -7 -7 -7 -7 -7 -7 -6 -6 -7 -9 -10 -9 -9 -8 -7 -7 -7 -7 -7 -7 -8 -8 -9
-2 -3 -2 -1 -9 -7 -9 -7 -6 -0 -0 -1 -2 -3 -5 -6 -6 -7 -7 -7 -7 -7 -7 -8 -7 -6 -5 -7 -9 -8 -7 -7 -7 -7 -7 -7 -7 -8 -8 -7 -7 -6 -6 -6
-4 -3 -2 -3 -6 -10 -8 -7 -6 -5 -10 -2 -1 -5 -6 -6 -6 -6 -7 -7 -8 -9 -9 -6 -5 -7 -8 -7 -6 -6 -7 -7 -7 -8 -9 -9 -9 -9 -8 -8 -7 -6 -5 -6
-4 -5 -6 -2 -8 -14 -14 -9 -8 -9 -8 -7 -3 -6 -6 -6 -4 -6 -7 -7 -8 -9 -6 -6 -8 -7 -6 -6 -8 -10 -13 -17 -19 -19 -19 -17 -15 -14 -12 -10 -9 -7 -5 -5
-2 -2 -2 -2 -3 -6 -10 -8 -8 -12 -15 -6 -5 -6 -6 -6 -6 -7 -7 -8 -8 -5 -6 -7 -6 -6 -8 -11 -16 -18 -19 -21 -24 -26 -28 -28 -26 -24 -19 -16 -15 -14 -11 -8
-4 -3 -2 -3 -2 -9 -7 -7 -8 -11 -6 -7 -5 -6 -6 -7 -8 -9 -8 -6 -6 -6 -6 -6 -7 -11 -14 -17 -20 -22 -23 -25 -27 -29 -30 -30 -29 -28 -24 -22 -22 -20 -17 -14
-5 -8 -6 -6 -6 -10 -7 -9 -9 -7 -7 -6 -6 -6 -7 -8 -9 -8 -7 -7 -6 -7 -8 -11 -14 -17 -20 -20 -22 -24 -25 -26 -26 -27 -29 -30 -30 -29 -27 -24 -23 -19 -15 -14
-6 -6 -4 -4 -6 -6 -6 -7 -7 -7 -7 -7 -7 -8 -9 -10 -9 -8 -7 -7 -8 -12 -13 -17 -20 -18 -18 -20 -23 -24 -24 -25 -25 -27 -27 -27 -25 -24 -24 -23 -21 -17 -13 -11
-8 -5 -4 -4 -6 -6 -6 -5 -6 -7 -7 -7 -8 -9 -10 -10 -8 -7 -8 -11 -13 -15 -20 -20 -19 -18 -19 -20 -20 -21 -23 -24 -26 -26 -24 -22 -20 -19 -18 -18 -17 -16 -14 -9
-6 -6 -6 -6 -8 -7 -7 -8 -6 -6 -7 -8 -10 -10 -9 -8 -7 -9 -12 -13 -18 -20 -19 -19 -20 -20 -18 -18 -17 -19 -23 -25 -25 -22 -18 -15 -13 -13 -11 -10 -10 -10 -11 -10

GFSCGP_850_dewp_147.txt.gz
Dewpoint
3 4 5 4 1 -1 -2 -1 0 -2 -4 -3 -3 -2 -2 -2 -1 -1 -1 -1 -1 -1 -1 -1 -1 -0 -0 -2 -3 -3 -3 -3 -3 -3 -4 -1 -1 -3 -3 -2 -1 -1 -1 -1
4 5 3 1 -1 -3 -2 -0 0 -3 -4 -3 -4 -4 -4 -5 -3 -2 -2 -2 -2 -2 -2 -2 -1 -1 -2 -2 -2 -2 -2 -2 -2 -2 -3 -1 -2 -4 -2 -1 -1 -1 -2 -2
5 4 3 1 -1 -2 -3 -0 -1 0 -4 -4 -3 -2 -4 -5 -6 -4 -3 -3 -3 -3 -3 -3 -2 -2 -3 -3 -3 -2 -2 -2 -1 -1 -1 -0 -3 -4 -2 -1 -1 -2 -3 -5
4 3 2 -1 -1 -3 -2 -4 -2 -1 -1 3 -5 3 -5 -4 -4 -6 -6 -5 -5 -5 -5 -5 -4 -4 -5 -5 -2 -2 -1 -1 -1 -0 0 -1 -4 -4 -3 -2 -1 -2 -3 -4
4 3 2 0 -0 -3 -2 -3 -3 -4 -3 -2 -3 1 -7 -6 -4 -4 -6 -7 -7 -7 -8 -8 -7 -7 -6 -5 -3 -2 -0 -0 -0 1 -0 -4 -4 -5 -4 -3 -2 -2 -3 -5
4 2 1 -0 -2 -2 -4 -5 -3 -3 -2 1 -2 -4 -7 -4 -5 -6 -6 -7 -7 -8 -9 -9 -10 -10 -10 -7 -5 -2 -0 0 1 1 -2 -4 -4 -4 -5 -4 -3 -2 -3 -4
4 1 0 -1 -1 -2 -5 -1 2 2 1 1 -2 -5 -6 -10 -2 -2 -4 -5 -6 -7 -8 -6 -5 -6 -6 -7 -6 -2 -0 1 1 -1 -3 -3 -3 -3 -3 -4 -3 -2 -2 -3
5 5 1 1 -1 -0 -3 -3 2 1 1 0 -1 -1 -6 -7 1 -0 -2 -4 -4 -4 -3 -1 -1 -2 -2 -2 -1 -1 0 -0 -2 -3 -3 -2 -2 -2 -2 -2 -3 -3 -2 -2
2 3 -0 0 -0 -2 -1 1 -4 -0 -2 1 0 -3 -5 -2 1 1 1 1 1 0 -0 -0 -0 -1 -1 -2 -3 -4 -3 -3 -3 -3 -3 -3 -2 -1 -1 -2 -3 -2 -2 -2
-2 3 1 -1 -2 -2 -3 -3 0 1 1 -2 -2 -1 1 1 1 1 2 1 1 1 0 -1 -3 -3 -4 -6 -8 -9 -9 -8 -5 -4 -3 -2 -3 -3 -3 -3 -2 -2 -2 -1
-2 -0 1 -1 -0 -1 -1 -1 -1 -1 -1 -1 -1 -2 -4 -2 0 1 1 1 1 -0 -1 -2 -5 -8 -9 -9 -9 -10 -10 -9 -8 -6 -3 -2 -1 -1 -2 -2 -2 -2 -2 -1
-1 -1 1 -0 1 -0 -0 -3 -4 -2 -2 -1 -3 -4 -3 -1 -1 -0 0 0 -0 -1 -3 -7 -8 -9 -9 -9 -10 -11 -10 -8 -7 -7 -6 -5 -4 -4 -4 -5 -5 -5 -4 -4
-1 -2 0 -1 -2 -2 0 0 -3 -4 -2 -0 -1 -6 -2 -1 -1 -1 -0 -2 -2 -2 -6 -8 -8 -8 -9 -9 -9 -9 -9 -8 -7 -6 -6 -6 -5 -6 -6 -6 -6 -7 -7 -7
-2 -2 -2 -0 -2 -2 -0 0 -2 -3 -1 -4 -3 -6 -3 -0 -0 -1 -2 -3 -3 -5 -7 -8 -8 -8 -8 -8 -8 -9 -8 -7 -6 -6 -6 -6 -6 -7 -9 -9 -9 -9 -9 -9
-1 0 -2 -3 -2 -1 -2 -1 -0 -1 -4 -4 -8 -5 -6 -1 -1 -2 -3 -6 -7 -7 -7 -8 -8 -8 -8 -8 -8 -7 -7 -6 -6 -6 -8 -9 -8 -8 -8 -8 -9 -9 -8 -8
-3 0 -3 -2 -4 -5 -3 -2 -1 -1 -2 -3 -3 -3 -6 -6 -2 -3 -5 -7 -8 -8 -8 -8 -7 -7 -7 -8 -7 -6 -6 -8 -9 -7 -7 -8 -9 -10 -13 -14 -16 -16 -15 -13
-3 -2 -0 -0 -4 -5 -5 -6 -1 -1 -1 -3 -2 -4 -5 -3 -2 -3 -5 -7 -8 -8 -8 -8 -7 -7 -7 -7 -6 -8 -8 -7 -7 -8 -10 -16 -21 -23 -26 -28 -29 -29 -30 -29
-4 -4 -3 -3 -8 -4 -7 -9 -6 -2 -2 -2 -3 -4 -5 -5 -3 -3 -5 -6 -7 -8 -8 -7 -7 -7 -6 -6 -8 -7 -7 -8 -11 -17 -20 -24 -26 -27 -27 -26 -27 -28 -29 -30
-5 -4 -3 -4 -6 -9 -11 -9 -5 -6 -10 -4 -2 -3 -4 -5 -5 -4 -4 -6 -7 -8 -7 -7 -7 -6 -6 -8 -6 -7 -10 -17 -18 -22 -23 -24 -21 -19 -19 -20 -24 -28 -29 -30
-4 -7 -6 -4 -9 -11 -19 -10 -8 -9 -11 -12 -5 -3 -5 -5 -2 -4 -5 -7 -7 -7 -7 -7 -6 -6 -7 -6 -8 -14 -18 -20 -21 -22 -20 -19 -17 -17 -18 -22 -27 -29 -28 -27
-2 -2 -3 -3 -5 -8 -14 -8 -8 -13 -16 -10 -5 -4 -5 -5 -4 -5 -6 -7 -7 -7 -7 -6 -6 -6 -6 -9 -14 -19 -19 -21 -21 -19 -17 -15 -17 -20 -25 -27 -27 -25 -23 -22
-2 -3 -2 -4 -5 -9 -10 -7 -9 -12 -9 -7 -5 -4 -5 -6 -7 -6 -6 -7 -7 -7 -6 -6 -6 -6 -9 -15 -19 -19 -20 -20 -18 -15 -15 -18 -22 -25 -26 -24 -23 -21 -20 -19
-6 -9 -7 -6 -7 -13 -8 -8 -9 -9 -8 -7 -5 -4 -5 -7 -7 -7 -7 -7 -7 -6 -6 -6 -7 -11 -16 -19 -20 -20 -19 -16 -15 -16 -20 -23 -26 -26 -23 -22 -21 -20 -20 -19
-6 -8 -7 -6 -8 -8 -9 -8 -7 -8 -8 -8 -7 -6 -6 -6 -7 -8 -8 -8 -7 -6 -7 -10 -14 -19 -19 -20 -19 -17 -17 -17 -19 -21 -24 -25 -24 -23 -22 -20 -21 -22 -23 -22
-7 -6 -6 -5 -6 -7 -7 -7 -7 -7 -7 -7 -7 -6 -6 -6 -7 -9 -8 -7 -6 -8 -11 -17 -19 -19 -19 -17 -16 -18 -19 -21 -24 -25 -24 -24 -23 -21 -20 -20 -20 -20 -19 -18
-6 -6 -5 -5 -8 -8 -8 -8 -7 -6 -6 -7 -7 -7 -8 -9 -10 -8 -7 -7 -9 -12 -17 -19 -19 -17 -16 -15 -16 -20 -24 -24 -24 -25 -24 -23 -21 -19 -18 -18 -18 -18 -18 -19

GFSCGP_850_dewp_153.txt.gz
Dewpoint
4 5 5 3 2 1 3 6 2 -4 -3 -2 -0 1 2 2 2 2 3 4 4 5 4 4 5 3 -0 -2 -5 -6 -5 -7 -5 -4 -3 -2 3 -2 -4 -4 -3 -2 -2 -3
4 6 2 3 3 4 5 6 -0 -4 -3 -4 -4 2 1 1 2 2 2 3 4 4 4 4 5 2 -0 -2 -4 -4 -4 -5 -3 -3 -3 -2 -1 -2 -4 -5 -3 -2 -2 -4
4 5 3 4 4 5 6 3 -1 1 -1 -4 -4 3 3 1 1 1 2 3 3 3 3 4 5 2 0 -1 -2 -3 -3 -3 -2 -3 -2 -1 -1 -3 -6 -5 -4 -2 -3 -4
5 4 4 4 5 5 3 -2 -3 -1 1 1 -1 5 3 2 1 1 1 1 1 2 1 2 3 2 -1 -1 -2 -2 -3 -2 -2 -2 -1 -1 -1 -2 -6 -6 -5 -3 -3 -4
5 4 5 4 4 3 3 -3 0 -2 -1 -4 0 4 3 1 2 -0 -1 -0 -1 0 0 1 2 -1 -1 -1 -2 -3 -2 -1 -1 -1 -1 -1 -2 -5 -6 -6 -5 -4 -4 -4
5 3 4 3 4 1 -2 -1 -0 -1 -2 5 -2 1 3 2 1 -0 -2 -2 -2 -2 -1 -1 1 0 -0 -1 -2 -2 -2 -1 -1 -1 -0 -0 -2 -5 -5 -4 -3 -3 -4 -4
6 5 1 1 -0 -3 -3 1 7 7 9 6 -2 -1 -4 -2 -2 -1 -2 -3 -3 -3 -3 -3 -3 -3 -3 -3 -3 -2 -2 -1 -1 -0 0 -0 -3 -3 -3 -2 -1 -1 -2 -2
8 6 3 -0 -0 -1 -2 3 6 7 5 4 -2 2 -5 -5 -3 -2 -3 -3 -4 -4 -5 -4 -6 -8 -7 -6 -5 -4 -3 -1 -2 -0 1 -2 -3 -2 -3 -2 -1 -1 -2 -3
4 5 -0 -2 -2 -2 -2 2 -1 1 -0 2 1 -2 -4 -3 0 -2 -2 -3 -3 -4 -2 1 -2 -5 -8 -8 -8 -8 -5 -3 -0 0 -2 -2 -2 -3 -3 -2 -2 -3 -3 -3
0 4 0 -1 -2 -3 -2 -5 3 4 5 2 0 -1 2 -1 1 -1 -1 -2 -1 -0 2 2 1 0 0 -2 -3 -2 -1 0 -2 -3 -3 -2 -1 -2 -1 -1 -1 -2 -3 -4
-2 -0 1 -1 1 -1 -2 -2 -1 -1 -1 -0 -1 -1 -4 -2 -1 -0 -1 -0 1 2 3 3 2 -0 -1 -1 -2 -3 -5 -7 -7 -7 -5 -4 -3 -1 0 -1 -4 -5 -6 -6
-2 -1 2 1 -0 -1 -1 -2 -3 -2 -3 -3 -4 -2 -4 -3 -2 -1 -1 1 1 2 2 -0 -2 -3 -6 -7 -8 -8 -8 -9 -9 -8 -7 -6 -5 -5 -5 -6 -6 -7 -8 -9
-0 -0 3 1 -2 -1 -0 -2 -4 -3 -2 -2 -1 -3 -2 -2 -2 -1 -0 1 2 1 -2 -4 -4 -5 -5 -7 -8 -9 -9 -9 -9 -9 -7 -6 -6 -6 -7 -8 -9 -9 -9 -11
-0 -2 -1 2 -0 -1 -1 -1 -3 -3 1 -4 -5 -7 -1 -1 -2 -1 -0 1 1 -1 -4 -5 -5 -5 -5 -6 -8 -8 -8 -9 -9 -8 -7 -6 -7 -8 -9 -9 -12 -17 -21 -25
-1 2 -0 -3 -2 -1 -1 -2 -2 -2 -3 -3 -6 -7 -6 -2 -2 -1 -0 -0 -1 -3 -5 -5 -6 -6 -5 -8 -8 -8 -8 -8 -7 -7 -7 -8 -8 -9 -13 -21 -24 -27 -28 -25
-2 2 -1 1 -3 -3 -2 -4 -3 -2 -3 -4 -5 -6 -9 -4 -3 -2 -1 -2 -2 -4 -5 -5 -5 -5 -6 -8 -8 -8 -8 -7 -7 -8 -8 -8 -11 -21 -23 -25 -24 -20 -19 -18
-1 1 1 0 -3 -3 -2 -4 -4 -4 -3 -5 -5 -6 -7 -5 -3 -2 -2 -2 -3 -4 -5 -6 -5 -6 -7 -8 -8 -7 -7 -8 -8 -7 -8 -16 -22 -23 -23 -18 -16 -15 -17 -22
-2 -1 1 2 -5 0 -6 -8 -6 -5 -5 -5 -6 -5 -6 -5 -4 -2 -2 -3 -4 -5 -5 -5 -5 -5 -7 -7 -7 -7 -8 -8 -7 -9 -18 -21 -22 -20 -17 -15 -15 -19 -22 -25
-4 -3 -2 -1 -4 -6 -9 -10 -7 -5 -7 -6 -4 -5 -6 -5 -5 -4 -2 -3 -5 -6 -6 -5 -5 -6 -7 -7 -7 -8 -7 -7 -10 -18 -21 -21 -19 -16 -14 -16 -19 -22 -26 -29
-5 -5 -3 -4 -3 -5 -12 -10 -9 -8 -8 -11 -9 -8 -8 -4 -4 -6 -4 -4 -5 -6 -6 -6 -6 -7 -7 -7 -7 -7 -7 -11 -18 -20 -21 -19 -16 -14 -17 -19 -22 -26 -28 -28
-1 -1 -1 -2 -3 -5 -9 -9 -8 -8 -8 -8 -7 -4 -5 -4 -5 -4 -5 -5 -6 -5 -5 -7 -7 -7 -6 -7 -7 -7 -12 -18 -20 -21 -19 -16 -15 -16 -18 -22 -27 -29 -28 -27
-3 -1 -1 -2 -1 0 -10 -8 -9 -9 -7 -6 -4 -3 -4 -4 -4 -4 -4 -4 -4 -5 -6 -7 -7 -6 -7 -7 -8 -13 -19 -20 -20 -18 -15 -15 -17 -20 -26 -29 -30 -28 -26 -24
-6 -6 -7 -4 -5 -11 -9 -7 -8 -7 -7 -6 -4 -4 -4 -4 -4 -3 -3 -4 -5 -6 -6 -6 -6 -7 -7 -8 -13 -19 -20 -19 -16 -15 -16 -18 -23 -29 -30 -28 -27 -26 -25 -24
-8 -8 -8 -8 -10 -9 -10 -9 -7 -8 -6 -7 -8 -4 -5 -4 -4 -4 -4 -4 -5 -6 -6 -6 -6 -7 -9 -14 -19 -20 -18 -15 -15 -16 -21 -28 -30 -29 -26 -25 -24 -23 -22 -20
-6 -7 -7 -8 -9 -9 -8 -8 -8 -8 -7 -8 -7 -6 -5 -5 -5 -5 -5 -5 -6 -6 -6 -6 -8 -11 -16 -19 -18 -16 -15 -16 -19 -26 -28 -26 -24 -23 -22 -20 -19 -18 -18 -17
-7 -7 -6 -6 -7 -8 -6 -6 -7 -6 -7 -6 -7 -6 -5 -5 -6 -6 -7 -7 -7 -6 -7 -11 -15 -19 -19 -17 -15 -16 -20 -26 -27 -25 -23 -22 -21 -20 -19 -19 -18 -18 -18 -17

GFSCGP_850_dewp_156.txt.gz
Dewpoint
3 4 4 3 3 2 2 2 3 2 1 4 3 0 1 3 3 4 5 6 6 6 5 4 4 3 2 -1 -5 -8 -8 -7 -8 -7 -5 -4 -4 -2 -4 -6 -4 -4 -3 -4
4 4 2 1 2 3 3 4 4 2 1 3 2 0 0 2 3 4 4 6 6 5 5 4 4 3 1 -2 -6 -7 -6 -6 -5 -5 -3 -3 -2 -2 -4 -6 -5 -4 -4 -5
5 3 4 3 4 5 4 4 4 3 4 4 -1 -0 2 2 2 3 4 5 5 5 4 4 5 3 1 -2 -5 -5 -5 -4 -4 -5 -3 -2 -1 -2 -5 -7 -7 -5 -5 -5
4 4 4 5 5 4 6 4 5 7 3 4 -3 3 6 3 3 2 3 4 4 5 4 4 4 3 0 -2 -2 -3 -3 -3 -4 -4 -3 -2 -1 -3 -5 -7 -8 -6 -6 -5
5 5 5 6 5 5 5 3 5 5 1 1 -2 3 4 3 4 3 2 3 4 4 4 4 3 2 -0 -1 -2 -2 -2 -3 -3 -3 -3 -2 -1 -3 -6 -5 -5 -5 -6 -5
5 4 4 4 2 3 3 1 5 5 3 4 0 1 5 4 3 2 1 2 2 3 2 2 2 1 0 -0 -0 -1 -2 -2 -3 -2 -2 -1 -0 -3 -5 -4 -3 -4 -4 -4
5 5 2 3 3 3 3 2 8 8 5 6 1 1 1 2 1 0 1 0 0 1 1 1 1 2 1 -0 -1 -1 -2 -2 -2 -2 -1 -0 0 -3 -4 -2 -3 -3 -2 -2
7 7 4 1 2 1 0 2 5 5 6 7 1 3 -2 1 -1 -1 -1 -1 -1 -1 -1 -0 0 0 0 -0 -1 -1 -2 -2 -2 -2 -1 1 -1 -2 -2 -3 -3 -3 -4 -3
8 5 0 -2 -2 -2 -0 5 0 4 5 6 3 -1 -3 0 -1 -2 -1 -2 -2 -2 -3 -2 -2 -2 -2 -2 -3 -4 -3 -1 -2 -2 -0 0 -2 -2 -3 -3 -4 -3 -3 -3
1 6 0 -1 -2 -2 -1 -2 4 6 8 7 4 1 5 1 1 -1 -0 -1 -3 -4 -4 -3 -2 -3 -5 -6 -6 -6 -5 -3 -2 -0 -0 -1 -2 -3 -3 -2 -2 -2 -4 -4
-1 1 3 -0 1 2 0 1 1 2 4 8 4 2 -3 -0 1 0 -0 -2 -3 -1 0 2 2 1 -2 -3 -3 -4 -2 -1 -0 -2 -3 -3 -3 -4 -2 -2 -3 -5 -5 -6
-2 -0 4 2 -0 -1 -0 -1 1 4 3 4 -1 0 -2 -2 -0 -0 -1 0 1 2 3 3 2 0 -0 -0 -1 -1 -3 -5 -8 -8 -7 -7 -6 -5 -5 -6 -6 -6 -8 -9
1 1 5 2 0 -1 0 -2 -3 -2 -0 3 2 -1 -2 -3 -1 -1 1 1 2 3 2 0 -2 -2 -3 -5 -7 -8 -8 -9 -9 -9 -8 -7 -6 -6 -6 -6 -8 -8 -11 -17
0 1 0 5 4 -0 -0 -1 -3 -2 4 -1 -5 -2 0 -1 -0 0 1 2 2 1 -2 -3 -4 -4 -5 -7 -8 -9 -9 -9 -9 -9 -7 -7 -7 -6 -8 -8 -11 -18 -25 -27
-0 3 0 -1 -1 -1 -1 -2 -2 -2 -1 -1 -4 -5 -2 -1 -1 0 1 1 0 -3 -4 -5 -5 -5 -6 -7 -8 -9 -9 -9 -8 -7 -7 -6 -8 -8 -9 -17 -24 -26 -21 -18
-0 2 0 1 -2 -3 -2 -2 -3 -2 -2 -3 -4 -5 -3 -3 -1 -0 0 0 -1 -4 -5 -5 -5 -6 -7 -8 -9 -9 -8 -8 -7 -7 -8 -8 -8 -13 -22 -24 -20 -16 -14 -15
-1 1 2 3 -3 -2 -1 -3 -3 -3 -3 -3 -4 -5 -5 -2 -1 -1 -1 -1 -2 -4 -5 -5 -6 -6 -7 -8 -8 -8 -8 -7 -7 -8 -7 -9 -17 -22 -22 -17 -15 -13 -15 -17
-1 -0 1 4 -3 1 -4 -8 -6 -4 -4 -4 -4 -5 -5 -4 -2 -2 -1 -2 -2 -4 -5 -5 -6 -6 -7 -7 -7 -8 -7 -8 -8 -7 -9 -18 -22 -21 -17 -14 -13 -15 -16 -18
-3 -2 0 1 -1 -3 -7 -10 -6 -4 -5 -6 -5 -5 -5 -5 -5 -5 -2 -2 -3 -3 -5 -6 -6 -6 -7 -7 -7 -7 -8 -8 -7 -10 -18 -21 -20 -17 -14 -13 -15 -16 -17 -21
-4 -4 -1 -2 -2 -2 -10 -10 -9 -8 -6 -11 -9 -8 -8 -4 -3 -3 -2 -3 -4 -5 -5 -6 -5 -6 -7 -7 -7 -7 -7 -7 -10 -17 -20 -20 -18 -15 -14 -15 -16 -20 -26 -30
-0 -1 0 0 -0 -2 -8 -9 -8 -8 -6 -7 -6 -4 -4 -3 -4 -4 -3 -5 -6 -6 -6 -5 -5 -6 -7 -7 -7 -7 -7 -10 -16 -20 -20 -17 -14 -14 -15 -17 -24 -29 -30 -29
-1 0 0 -1 -0 -0 -8 -8 -8 -7 -7 -6 -4 -4 -4 -4 -5 -5 -5 -6 -6 -6 -5 -5 -6 -6 -6 -7 -7 -8 -12 -17 -20 -20 -16 -14 -14 -16 -21 -27 -28 -27 -25 -23
-6 -5 -5 -3 -2 -10 -9 -7 -9 -7 -6 -6 -4 -4 -4 -4 -4 -4 -4 -4 -4 -5 -5 -5 -6 -6 -7 -7 -9 -12 -17 -20 -18 -15 -14 -15 -19 -25 -27 -25 -24 -22 -21 -20
-8 -8 -7 -9 -9 -8 -10 -10 -8 -9 -7 -8 -7 -4 -5 -4 -4 -3 -3 -4 -4 -5 -5 -5 -6 -7 -7 -10 -14 -18 -19 -17 -14 -14 -17 -22 -25 -26 -24 -23 -21 -20 -19 -18
-6 -7 -7 -7 -8 -9 -9 -9 -10 -8 -7 -7 -8 -5 -5 -5 -4 -4 -4 -4 -5 -5 -5 -6 -7 -8 -11 -16 -19 -18 -16 -15 -16 -20 -23 -25 -25 -24 -24 -22 -20 -19 -19 -17
-7 -6 -5 -5 -7 -6 -6 -7 -7 -7 -7 -7 -7 -5 -5 -5 -5 -5 -5 -5 -6 -6 -7 -8 -9 -13 -18 -18 -16 -15 -15 -17 -20 -24 -25 -25 -25 -23 -22 -21 -21 -21 -19 -18